Location: Marcé
(47.5801°N, 0.3280°W)
Time: 15:07:57
(UTC+01:00)

Vanguard 3 - Pass Details

Date: 14 December 2021
Orbit: 508 x 3260 km, 33.3° (Epoch: 20 January)

Event Time Altitude Azimuth Distance (km) Brightness Sun altitude
Rises 05:57:06 0° 269° (W) 6,812 - -26.6°
Reaches altitude 10° 06:01:42 10° 263° (W) 5,995 - -25.9°
Exits shadow 06:08:15 25° 251° (WSW) 4,960 10.6 -24.8°
Maximum altitude 06:19:21 44° 201° (SSW) 3,983 10.5 -22.9°
Drops below altitude 10° 06:35:03 10° 137° (SE) 5,359 12.1 -20.3°
Sets 06:38:55 0° 131° (SE) 6,063 12.7 -19.7°
